| time (UTC) | temp F | wind direction | speed MPH | gust MPH | rain 1hr in | rain 24hr in | rain mn in | humidity % | barometer mb |
| 20260505163940 | 80 | 169 | 5.0 | 8.0 | 0.00 | 0.00 | 0.00 | 46 | 1011.6 |
| 20260505163439 | 80 | 152 | 4.0 | 5.0 | 0.00 | 0.00 | 0.00 | 45 | 1011.7 |
| 20260505162938 | 78 | 164 | 2.0 | 11.0 | 0.00 | 0.00 | 0.00 | 47 | 1012.0 |
| 20260505162433 | 78 | 113 | 3.0 | 9.0 | 0.00 | 0.00 | 0.00 | 46 | 1011.8 |
| 20260505161930 | 79 | 191 | 4.0 | 9.0 | 0.00 | 0.00 | 0.00 | 46 | 1012.1 |
| 20260505161427 | 78 | 283 | 3.0 | 9.0 | 0.00 | 0.00 | 0.00 | 46 | 1011.9 |
| 20260505160924 | 77 | 191 | 2.0 | 5.0 | 0.00 | 0.00 | 0.00 | 48 | 1012.0 |
| 20260505160423 | 77 | 137 | 4.0 | 10.0 | 0.00 | 0.00 | 0.00 | 49 | 1012.0 |
| 20260505152858 | 77 | 253 | 4.0 | 8.0 | 0.00 | 0.00 | 0.00 | 47 | 1012.3 |
| 20260505152355 | 77 | 135 | 4.0 | 9.0 | 0.00 | 0.00 | 0.00 | 47 | 1012.3 |
| 20260505151849 | 78 | 179 | 6.0 | 11.0 | 0.00 | 0.00 | 0.00 | 47 | 1012.4 |
| 20260505151347 | 76 | 193 | 4.0 | 13.0 | 0.00 | 0.00 | 0.00 | 50 | 1012.8 |
| 20260505150843 | 76 | 276 | 2.0 | 7.0 | 0.00 | 0.00 | 0.00 | 50 | 1012.8 |
| 20260505150340 | 76 | 154 | 6.0 | 7.0 | 0.00 | 0.00 | 0.00 | 50 | 1012.8 |
| 20260505140305 | 71 | 213 | 3.0 | 10.0 | 0.00 | 0.00 | 0.00 | 58 | 1013.1 |
| 20260505130229 | 69 | 353 | 1.0 | 8.0 | 0.00 | 0.00 | 0.00 | 62 | 1012.7 |
| 20260505124719 | 69 | 269 | 5.0 | 8.0 | 0.00 | 0.00 | 0.00 | 59 | 1012.5 |
| 20260505124216 | 69 | 151 | 5.0 | 8.0 | 0.00 | 0.00 | 0.00 | 60 | 1012.5 |
| 20260505123711 | 69 | 282 | 2.0 | 10.0 | 0.00 | 0.00 | 0.00 | 59 | 1012.5 |
| 20260505123209 | 68 | 275 | 4.0 | 15.0 | 0.00 | 0.00 | 0.00 | 59 | 1012.7 |
| 20260505122705 | 68 | 269 | 4.0 | 7.0 | 0.00 | 0.00 | 0.00 | 61 | 1012.5 |
| 20260505122202 | 68 | 308 | 2.0 | 12.0 | 0.00 | 0.00 | 0.00 | 61 | 1012.5 |
| 20260505121659 | 68 | 286 | 0.0 | 8.0 | 0.00 | 0.00 | 0.00 | 61 | 1012.6 |
| 20260505121155 | 69 | 263 | 2.0 | 5.0 | 0.00 | 0.00 | 0.00 | 61 | 1012.6 |
| 20260505120651 | 68 | 256 | 1.0 | 3.0 | 0.00 | 0.00 | 0.00 | 63 | 1012.4 |
| 20260505120147 | 67 | 230 | 4.0 | 5.0 | 0.00 | 0.00 | 0.00 | 64 | 1012.6 |
| 20260505115641 | 67 | 111 | 2.0 | 4.0 | 0.00 | 0.00 | 0.00 | 64 | 1012.6 |
| 20260505115139 | 66 | 213 | 2.0 | 5.0 | 0.00 | 0.00 | 0.00 | 63 | 1012.8 |
| 20260505114636 | 66 | 125 | 1.0 | 7.0 | 0.00 | 0.00 | 0.00 | 65 | 1012.4 |
| 20260505114132 | 65 | 309 | 2.0 | 5.0 | 0.00 | 0.00 | 0.00 | 65 | 1012.6 |
| 20260505113629 | 65 | 309 | 1.0 | 7.0 | 0.00 | 0.00 | 0.00 | 66 | 1012.8 |
| 20260505113126 | 64 | 273 | 2.0 | 9.0 | 0.00 | 0.00 | 0.00 | 67 | 1012.6 |
| 20260505112622 | 64 | 272 | 1.0 | 6.0 | 0.00 | 0.00 | 0.00 | 69 | 1012.7 |
| 20260505112120 | 63 | 261 | 1.0 | 8.0 | 0.00 | 0.00 | 0.00 | 70 | 1012.8 |
| 20260505111614 | 63 | 212 | 0.0 | 4.0 | 0.00 | 0.00 | 0.00 | 71 | 1012.5 |
| 20260505111110 | 62 | 254 | 0.0 | 3.0 | 0.00 | 0.00 | 0.00 | 72 | 1012.6 |
| 20260505110607 | 61 | 300 | 3.0 | 5.0 | 0.00 | 0.00 | 0.00 | 74 | 1012.7 |
| 20260505110104 | 60 | 247 | 1.0 | 6.0 | 0.00 | 0.00 | 0.00 | 75 | 1012.6 |
| 20260505102039 | 59 | 307 | 3.0 | 8.0 | 0.00 | 0.00 | 0.00 | 77 | 1012.8 |
| 20260505101537 | 59 | 291 | 2.0 | 5.0 | 0.00 | 0.00 | 0.00 | 77 | 1012.7 |
| 20260505101033 | 59 | 268 | 3.0 | 6.0 | 0.00 | 0.00 | 0.00 | 78 | 1012.6 |
| 20260505100531 | 58 | 277 | 3.0 | 5.0 | 0.00 | 0.00 | 0.00 | 79 | 1012.2 |
| 20260505100027 | 58 | 150 | 3.0 | 5.0 | 0.00 | 0.00 | 0.00 | 78 | 1012.1 |
| 20260505095524 | 58 | 191 | 2.0 | 3.0 | 0.00 | 0.00 | 0.00 | 78 | 1011.9 |
| 20260505095020 | 58 | 353 | 0.0 | 2.0 | 0.00 | 0.00 | 0.00 | 78 | 1012.0 |
| 20260505094517 | 59 | 161 | 3.0 | 6.0 | 0.00 | 0.00 | 0.00 | 77 | 1011.8 |
| 20260505094013 | 59 | 210 | 3.0 | 6.0 | 0.00 | 0.00 | 0.00 | 77 | 1011.8 |
| 20260505093509 | 59 | 136 | 2.0 | 3.0 | 0.00 | 0.00 | 0.00 | 77 | 1011.4 |
| 20260505093007 | 59 | 162 | 2.0 | 5.0 | 0.00 | 0.00 | 0.00 | 77 | 1011.7 |
| 20260505092504 | 58 | 197 | 3.0 | 4.0 | 0.00 | 0.00 | 0.00 | 77 | 1011.7 |
| 20260505092002 | 58 | 172 | 3.0 | 7.0 | 0.00 | 0.00 | 0.00 | 78 | 1011.8 |
| 20260505091459 | 58 | 131 | 2.0 | 6.0 | 0.00 | 0.00 | 0.00 | 78 | 1011.8 |
| 20260505090957 | 58 | 292 | 1.0 | 6.0 | 0.00 | 0.00 | 0.00 | 78 | 1011.7 |
| 20260505090455 | 57 | 281 | 0.0 | 3.0 | 0.00 | 0.00 | 0.00 | 79 | 1011.8 |
| 20260505085952 | 57 | 119 | 0.0 | 2.0 | 0.00 | 0.00 | 0.00 | 79 | 1011.7 |
| 20260505085450 | 57 | 118 | 0.0 | 2.0 | 0.00 | 0.00 | 0.00 | 79 | 1011.7 |
| 20260505084948 | 57 | 309 | 0.0 | 3.0 | 0.00 | 0.00 | 0.00 | 78 | 1012.0 |
| 20260505084446 | 58 | 180 | 0.0 | 3.0 | 0.00 | 0.00 | 0.00 | 78 | 1011.8 |
| 20260505083943 | 58 | 136 | 2.0 | 2.0 | 0.00 | 0.00 | 0.00 | 77 | 1011.8 |
| 20260505083440 | 58 | 204 | 2.0 | 3.0 | 0.00 | 0.00 | 0.00 | 77 | 1011.6 |
| 20260505082937 | 58 | 56 | 0.0 | 4.0 | 0.00 | 0.00 | 0.00 | 76 | 1011.8 |
| 20260505082432 | 59 | 127 | 3.0 | 4.0 | 0.00 | 0.00 | 0.00 | 76 | 1011.8 |
| 20260505081930 | 59 | 122 | 2.0 | 6.0 | 0.00 | 0.00 | 0.00 | 75 | 1011.6 |
| 20260505081427 | 59 | 263 | 2.0 | 8.0 | 0.00 | 0.00 | 0.00 | 75 | 1011.6 |
| 20260505080923 | 59 | 122 | 2.0 | 9.0 | 0.00 | 0.00 | 0.00 | 76 | 1011.7 |
| 20260505080419 | 58 | 183 | 0.0 | 4.0 | 0.00 | 0.00 | 0.00 | 77 | 1011.6 |
| 20260505075915 | 58 | 315 | 0.0 | 3.0 | 0.00 | 0.00 | 0.00 | 77 | 1011.8 |
| 20260505075412 | 58 | 158 | 0.0 | 3.0 | 0.00 | 0.00 | 0.00 | 78 | 1011.8 |
| 20260505074909 | 57 | 152 | 0.0 | 3.0 | 0.00 | 0.00 | 0.00 | 78 | 1011.6 |
| 20260505074406 | 57 | 229 | 1.0 | 5.0 | 0.00 | 0.00 | 0.00 | 79 | 1011.9 |
| 20260505073903 | 57 | 255 | 0.0 | 2.0 | 0.00 | 0.00 | 0.00 | 80 | 1011.7 |
| 20260505073401 | 56 | 93 | 0.0 | 5.0 | 0.00 | 0.00 | 0.00 | 81 | 1011.5 |
| 20260505072858 | 55 | 307 | 0.0 | 3.0 | 0.00 | 0.00 | 0.00 | 84 | 1011.6 |
| 20260505072354 | 55 | 104 | 0.0 | 1.0 | 0.00 | 0.00 | 0.00 | 84 | 1011.7 |
| 20260505071850 | 55 | 135 | 1.0 | 3.0 | 0.00 | 0.00 | 0.00 | 84 | 1011.6 |
| 20260505071347 | 55 | 128 | 1.0 | 2.0 | 0.00 | 0.00 | 0.00 | 83 | 1011.6 |
| 20260505070845 | 55 | 62 | 0.0 | 2.0 | 0.00 | 0.00 | 0.00 | 82 | 1011.6 |
| 20260505070341 | 56 | 119 | 0.0 | 3.0 | 0.00 | 0.00 | 0.00 | 82 | 1011.6 |
| 20260505065836 | 55 | 145 | 2.0 | 3.0 | 0.00 | 0.00 | 0.00 | 82 | 1011.7 |
| 20260505065334 | 55 | 140 | 1.0 | 2.0 | 0.00 | 0.00 | 0.00 | 82 | 1011.7 |
| 20260505064831 | 55 | 124 | 0.0 | 2.0 | 0.00 | 0.00 | 0.00 | 81 | 1011.7 |
| 20260505064327 | 56 | 107 | 2.0 | 2.0 | 0.00 | 0.00 | 0.00 | 81 | 1011.7 |
| 20260505063826 | 56 | 105 | 1.0 | 2.0 | 0.00 | 0.00 | 0.00 | 80 | 1011.6 |
| 20260505063321 | 56 | 52 | 0.0 | 2.0 | 0.00 | 0.00 | 0.00 | 80 | 1011.9 |
| 20260505062818 | 56 | 89 | 1.0 | 2.0 | 0.00 | 0.00 | 0.00 | 79 | 1011.8 |
| 20260505062316 | 56 | 130 | 0.0 | 3.0 | 0.00 | 0.00 | 0.00 | 78 | 1011.7 |
| 20260505061812 | 57 | 128 | 1.0 | 2.0 | 0.00 | 0.00 | 0.00 | 78 | 1011.8 |
| 20260505061311 | 57 | 113 | 1.0 | 3.0 | 0.00 | 0.00 | 0.00 | 77 | 1011.7 |
| 20260505060808 | 57 | 118 | 0.0 | 2.0 | 0.00 | 0.00 | 0.00 | 76 | 1011.7 |
| 20260505060304 | 58 | 137 | 2.0 | 6.0 | 0.00 | 0.00 | 0.00 | 75 | 1011.8 |
| 20260505055800 | 58 | 171 | 2.0 | 3.0 | 0.00 | 0.00 | 0.00 | 75 | 1011.8 |
| 20260505055256 | 58 | 109 | 2.0 | 4.0 | 0.00 | 0.00 | 0.00 | 74 | 1011.7 |
| 20260505054754 | 58 | 180 | 0.0 | 3.0 | 0.00 | 0.00 | 0.00 | 74 | 1011.9 |
| 20260505054251 | 58 | 165 | 3.0 | 5.0 | 0.00 | 0.00 | 0.00 | 74 | 1011.9 |
| 20260505053749 | 58 | 64 | 1.0 | 3.0 | 0.00 | 0.00 | 0.00 | 74 | 1012.0 |
| 20260505053246 | 58 | 135 | 2.0 | 3.0 | 0.00 | 0.00 | 0.00 | 73 | 1012.0 |
| 20260505052743 | 58 | 188 | 2.0 | 6.0 | 0.00 | 0.00 | 0.00 | 72 | 1011.8 |
| 20260505052240 | 58 | 149 | 2.0 | 6.0 | 0.00 | 0.00 | 0.00 | 72 | 1012.0 |
| 20260505051737 | 59 | 159 | 3.0 | 7.0 | 0.00 | 0.00 | 0.00 | 71 | 1012.1 |
| 20260505051235 | 59 | 147 | 3.0 | 7.0 | 0.00 | 0.00 | 0.00 | 71 | 1012.0 |
| 20260505050732 | 59 | 182 | 3.0 | 5.0 | 0.00 | 0.00 | 0.00 | 70 | 1011.9 |
| 20260505050231 | 59 | 173 | 3.0 | 10.0 | 0.00 | 0.00 | 0.00 | 69 | 1012.0 |
| 20260505041700 | 61 | 165 | 4.0 | 8.0 | 0.00 | 0.00 | 0.00 | 65 | 1012.3 |
| 20260505041158 | 61 | 182 | 4.0 | 12.0 | 0.00 | 0.00 | 0.00 | 64 | 1012.3 |
| 20260505040655 | 61 | 177 | 6.0 | 13.0 | 0.00 | 0.00 | 0.00 | 64 | 1012.3 |
| 20260505040152 | 61 | 189 | 7.0 | 9.0 | 0.00 | 0.00 | 0.00 | 64 | 1012.5 |
| 20260505035648 | 61 | 166 | 5.0 | 13.0 | 0.00 | 0.00 | 0.00 | 64 | 1012.2 |
| 20260505035144 | 61 | 197 | 4.0 | 11.0 | 0.00 | 0.00 | 0.00 | 64 | 1012.3 |
| 20260505034641 | 61 | 210 | 4.0 | 9.0 | 0.00 | 0.00 | 0.00 | 64 | 1012.6 |
| 20260505034139 | 61 | 151 | 10.0 | 12.0 | 0.00 | 0.00 | 0.00 | 64 | 1012.5 |
| 20260505033635 | 61 | 172 | 5.0 | 10.0 | 0.00 | 0.00 | 0.00 | 64 | 1012.5 |
| 20260505033133 | 61 | 152 | 5.0 | 10.0 | 0.00 | 0.00 | 0.00 | 63 | 1012.5 |
| 20260505032631 | 61 | 165 | 4.0 | 13.0 | 0.00 | 0.00 | 0.00 | 63 | 1012.3 |
| 20260505032127 | 61 | 158 | 4.0 | 7.0 | 0.00 | 0.00 | 0.00 | 62 | 1012.4 |
| 20260505031624 | 62 | 198 | 5.0 | 10.0 | 0.00 | 0.00 | 0.00 | 61 | 1012.3 |
| 20260505031120 | 62 | 178 | 5.0 | 13.0 | 0.00 | 0.00 | 0.00 | 61 | 1012.4 |
| 20260505030618 | 62 | 174 | 3.0 | 11.0 | 0.00 | 0.00 | 0.00 | 60 | 1012.5 |
| 20260505030113 | 62 | 137 | 4.0 | 10.0 | 0.00 | 0.00 | 0.00 | 60 | 1012.4 |
| 20260505025609 | 62 | 219 | 5.0 | 9.0 | 0.00 | 0.00 | 0.00 | 59 | 1012.7 |
| 20260505025108 | 62 | 178 | 2.0 | 6.0 | 0.00 | 0.00 | 0.00 | 58 | 1012.7 |
| 20260505024605 | 62 | 178 | 5.0 | 15.0 | 0.00 | 0.00 | 0.00 | 58 | 1012.6 |
| 20260505024103 | 62 | 179 | 6.0 | 8.0 | 0.00 | 0.00 | 0.00 | 57 | 1012.6 |
| 20260505023600 | 62 | 187 | 3.0 | 11.0 | 0.00 | 0.00 | 0.00 | 57 | 1012.7 |
| 20260505023057 | 63 | 186 | 3.0 | 12.0 | 0.00 | 0.00 | 0.00 | 56 | 1012.7 |
| 20260505022554 | 63 | 192 | 4.0 | 10.0 | 0.00 | 0.00 | 0.00 | 56 | 1012.7 |
| 20260505022051 | 63 | 180 | 3.0 | 10.0 | 0.00 | 0.00 | 0.00 | 56 | 1012.9 |
| 20260505021548 | 63 | 161 | 5.0 | 13.0 | 0.00 | 0.00 | 0.00 | 56 | 1012.7 |
| 20260505021045 | 63 | 157 | 4.0 | 10.0 | 0.00 | 0.00 | 0.00 | 55 | 1012.8 |
| 20260505020544 | 63 | 206 | 3.0 | 10.0 | 0.00 | 0.00 | 0.00 | 55 | 1012.6 |
| 20260505020042 | 63 | 190 | 3.0 | 11.0 | 0.00 | 0.00 | 0.00 | 55 | 1012.6 |
| 20260505015539 | 63 | 191 | 4.0 | 9.0 | 0.00 | 0.00 | 0.00 | 55 | 1012.6 |
| 20260505015035 | 64 | 188 | 4.0 | 13.0 | 0.00 | 0.00 | 0.00 | 54 | 1012.5 |
| 20260505014532 | 64 | 174 | 4.0 | 10.0 | 0.00 | 0.00 | 0.00 | 54 | 1012.6 |
| 20260505014029 | 64 | 250 | 3.0 | 10.0 | 0.00 | 0.00 | 0.00 | 54 | 1012.8 |
| 20260505013527 | 64 | 80 | 2.0 | 10.0 | 0.00 | 0.00 | 0.00 | 54 | 1012.7 |
| 20260505013024 | 64 | 224 | 3.0 | 11.0 | 0.00 | 0.00 | 0.00 | 54 | 1012.5 |
| 20260505012522 | 64 | 173 | 4.0 | 13.0 | 0.00 | 0.00 | 0.00 | 54 | 1012.6 |
| 20260505012019 | 64 | 291 | 0.0 | 9.0 | 0.00 | 0.00 | 0.00 | 54 | 1012.5 |
| 20260505011514 | 64 | 180 | 4.0 | 12.0 | 0.00 | 0.00 | 0.00 | 53 | 1012.3 |
| 20260505011011 | 64 | 226 | 3.0 | 9.0 | 0.00 | 0.00 | 0.00 | 54 | 1012.2 |
| 20260505010507 | 64 | 127 | 4.0 | 11.0 | 0.00 | 0.00 | 0.00 | 54 | 1012.2 |
| 20260505010004 | 65 | 247 | 4.0 | 11.0 | 0.00 | 0.00 | 0.00 | 54 | 1012.1 |
| 20260505005500 | 65 | 180 | 4.0 | 10.0 | 0.00 | 0.00 | 0.00 | 54 | 1012.0 |
| 20260505004958 | 65 | 144 | 3.0 | 10.0 | 0.00 | 0.00 | 0.00 | 54 | 1012.1 |
| 20260505004454 | 65 | 122 | 1.0 | 12.0 | 0.00 | 0.00 | 0.00 | 54 | 1012.0 |
| 20260505003951 | 65 | 161 | 4.0 | 15.0 | 0.00 | 0.00 | 0.00 | 54 | 1011.8 |
| 20260505003448 | 65 | 193 | 2.0 | 11.0 | 0.00 | 0.00 | 0.00 | 55 | 1011.8 |
| 20260505002944 | 65 | 172 | 2.0 | 11.0 | 0.00 | 0.00 | 0.00 | 57 | 1011.6 |
| 20260505002441 | 64 | 218 | 2.0 | 9.0 | 0.00 | 0.00 | 0.00 | 58 | 1011.9 |
| 20260505001939 | 64 | 163 | 5.0 | 9.0 | 0.00 | 0.00 | 0.00 | 58 | 1011.6 |
| 20260505001436 | 64 | 149 | 3.0 | 10.0 | 0.00 | 0.00 | 0.00 | 58 | 1011.4 |
| 20260505000933 | 64 | 133 | 2.0 | 9.0 | 0.00 | 0.00 | 0.00 | 59 | 1011.6 |
| 20260505000432 | 64 | 155 | 5.0 | 12.0 | 0.00 | 0.00 | 0.00 | 59 | 1011.5 |
| 20260504235928 | 64 | 163 | 4.0 | 7.0 | 0.00 | 0.00 | 0.00 | 60 | 1011.3 |
| 20260504235425 | 64 | 180 | 4.0 | 11.0 | 0.00 | 0.00 | 0.00 | 61 | 1011.2 |
| 20260504234921 | 64 | 165 | 2.0 | 11.0 | 0.00 | 0.00 | 0.00 | 62 | 1011.1 |
| 20260504234419 | 64 | 178 | 4.0 | 9.0 | 0.00 | 0.00 | 0.00 | 62 | 1011.1 |
| 20260504233915 | 64 | 167 | 3.0 | 9.0 | 0.00 | 0.00 | 0.00 | 62 | 1011.0 |
| 20260504233411 | 64 | 194 | 3.0 | 7.0 | 0.00 | 0.00 | 0.00 | 61 | 1010.8 |
| 20260504232908 | 64 | 148 | 7.0 | 13.0 | 0.00 | 0.00 | 0.00 | 62 | 1010.8 |
| 20260504232405 | 64 | 136 | 3.0 | 6.0 | 0.00 | 0.00 | 0.00 | 61 | 1010.9 |
| 20260504231902 | 65 | 188 | 4.0 | 15.0 | 0.00 | 0.00 | 0.00 | 60 | 1010.7 |
| 20260504231358 | 65 | 164 | 2.0 | 14.0 | 0.00 | 0.00 | 0.00 | 60 | 1010.7 |
| 20260504230855 | 65 | 112 | 3.0 | 8.0 | 0.00 | 0.00 | 0.00 | 59 | 1010.7 |
| 20260504230352 | 65 | 163 | 4.0 | 7.0 | 0.00 | 0.00 | 0.00 | 58 | 1010.5 |
| 20260504225851 | 65 | 164 | 4.0 | 14.0 | 0.00 | 0.00 | 0.00 | 59 | 1010.6 |
| 20260504225347 | 65 | 151 | 5.0 | 9.0 | 0.00 | 0.00 | 0.00 | 58 | 1010.7 |
| 20260504224844 | 66 | 169 | 6.0 | 12.0 | 0.00 | 0.00 | 0.00 | 57 | 1010.8 |
| 20260504224341 | 66 | 160 | 4.0 | 10.0 | 0.00 | 0.00 | 0.00 | 57 | 1010.8 |
| 20260504223838 | 67 | 145 | 3.0 | 5.0 | 0.00 | 0.00 | 0.00 | 55 | 1010.7 |
| 20260504223333 | 66 | 168 | 5.0 | 12.0 | 0.00 | 0.00 | 0.00 | 55 | 1010.5 |
| 20260504222830 | 67 | 151 | 7.0 | 10.0 | 0.00 | 0.00 | 0.00 | 54 | 1010.6 |
| 20260504222327 | 67 | 176 | 4.0 | 7.0 | 0.00 | 0.00 | 0.00 | 54 | 1010.7 |
| 20260504221826 | 68 | 141 | 3.0 | 9.0 | 0.00 | 0.00 | 0.00 | 53 | 1010.8 |
| 20260504221322 | 68 | 162 | 3.0 | 8.0 | 0.00 | 0.00 | 0.00 | 53 | 1010.7 |
| 20260504220819 | 69 | 146 | 3.0 | 8.0 | 0.00 | 0.00 | 0.00 | 51 | 1010.9 |
| 20260504220316 | 68 | 167 | 2.0 | 10.0 | 0.00 | 0.00 | 0.00 | 52 | 1010.8 |
| 20260504215813 | 68 | 176 | 3.0 | 10.0 | 0.00 | 0.00 | 0.00 | 52 | 1010.9 |
| 20260504215309 | 69 | 114 | 6.0 | 12.0 | 0.00 | 0.00 | 0.00 | 52 | 1010.8 |
| 20260504214805 | 68 | 159 | 5.0 | 10.0 | 0.00 | 0.00 | 0.00 | 52 | 1010.9 |
| 20260504214302 | 68 | 153 | 7.0 | 14.0 | 0.00 | 0.00 | 0.00 | 52 | 1010.9 |
| 20260504213759 | 69 | 201 | 4.0 | 7.0 | 0.00 | 0.00 | 0.00 | 51 | 1011.2 |
| 20260504213255 | 69 | 190 | 5.0 | 11.0 | 0.00 | 0.00 | 0.00 | 51 | 1011.2 |
| 20260504212752 | 68 | 192 | 3.0 | 11.0 | 0.00 | 0.00 | 0.00 | 51 | 1011.1 |
| 20260504212248 | 69 | 172 | 2.0 | 7.0 | 0.00 | 0.00 | 0.00 | 50 | 1011.1 |
| 20260504211746 | 69 | 192 | 3.0 | 11.0 | 0.00 | 0.00 | 0.00 | 49 | 1011.4 |
| 20260504211242 | 70 | 233 | 3.0 | 8.0 | 0.00 | 0.00 | 0.00 | 48 | 1011.2 |
| 20260504210740 | 70 | 248 | 2.0 | 8.0 | 0.00 | 0.00 | 0.00 | 48 | 1011.1 |
| 20260504210237 | 71 | 178 | 6.0 | 11.0 | 0.00 | 0.00 | 0.00 | 46 | 1010.9 |
| 20260504205734 | 71 | 180 | 3.0 | 11.0 | 0.00 | 0.00 | 0.00 | 45 | 1011.0 |
| 20260504205231 | 71 | 216 | 5.0 | 9.0 | 0.00 | 0.00 | 0.00 | 44 | 1010.9 |
| 20260504204730 | 70 | 186 | 3.0 | 9.0 | 0.00 | 0.00 | 0.00 | 47 | 1010.9 |
| 20260504204228 | 70 | 133 | 3.0 | 11.0 | 0.00 | 0.00 | 0.00 | 46 | 1011.1 |
| 20260504203727 | 71 | 147 | 7.0 | 14.0 | 0.00 | 0.00 | 0.00 | 46 | 1011.1 |
| 20260504203224 | 71 | 81 | 0.0 | 8.0 | 0.00 | 0.00 | 0.00 | 44 | 1011.1 |
| 20260504202723 | 72 | 241 | 2.0 | 13.0 | 0.00 | 0.00 | 0.00 | 42 | 1010.9 |
| 20260504202221 | 73 | 216 | 6.0 | 12.0 | 0.00 | 0.00 | 0.00 | 40 | 1011.1 |
| 20260504201718 | 75 | 208 | 8.0 | 10.0 | 0.00 | 0.00 | 0.00 | 37 | 1011.2 |
| 20260504201215 | 74 | 155 | 7.0 | 9.0 | 0.00 | 0.00 | 0.00 | 34 | 1011.1 |
| 20260504200713 | 74 | 244 | 5.0 | 12.0 | 0.00 | 0.00 | 0.00 | 34 | 1011.2 |
| 20260504200209 | 73 | 258 | 2.0 | 16.0 | 0.00 | 0.00 | 0.00 | 35 | 1011.1 |
| 20260504195705 | 73 | 221 | 5.0 | 13.0 | 0.00 | 0.00 | 0.00 | 34 | 1011.1 |
| 20260504195201 | 73 | 153 | 3.0 | 8.0 | 0.00 | 0.00 | 0.00 | 34 | 1011.2 |
| 20260504194658 | 73 | 170 | 7.0 | 15.0 | 0.00 | 0.00 | 0.00 | 34 | 1011.2 |
| 20260504194154 | 74 | 132 | 3.0 | 22.0 | 0.00 | 0.00 | 0.00 | 34 | 1011.4 |
| 20260504193651 | 74 | 295 | 2.0 | 13.0 | 0.00 | 0.00 | 0.00 | 34 | 1011.5 |
| 20260504193149 | 74 | 207 | 3.0 | 14.0 | 0.00 | 0.00 | 0.00 | 34 | 1011.3 |
| 20260504192646 | 75 | 288 | 4.0 | 11.0 | 0.00 | 0.00 | 0.00 | 34 | 1011.5 |
| 20260504192144 | 74 | 218 | 5.0 | 10.0 | 0.00 | 0.00 | 0.00 | 35 | 1011.5 |
| 20260504191642 | 74 | 222 | 4.0 | 12.0 | 0.00 | 0.00 | 0.00 | 34 | 1011.5 |
| 20260504191138 | 74 | 272 | 3.0 | 11.0 | 0.00 | 0.00 | 0.00 | 34 | 1011.7 |
| 20260504190634 | 75 | 245 | 6.0 | 10.0 | 0.00 | 0.00 | 0.00 | 33 | 1011.7 |
| 20260504190131 | 74 | 273 | 5.0 | 12.0 | 0.00 | 0.00 | 0.00 | 34 | 1011.7 |
| 20260504185627 | 74 | 252 | 6.0 | 14.0 | 0.00 | 0.00 | 0.00 | 33 | 1011.7 |
| 20260504185124 | 73 | 100 | 0.0 | 13.0 | 0.00 | 0.00 | 0.00 | 34 | 1011.9 |
| 20260504184620 | 72 | 300 | 5.0 | 17.0 | 0.00 | 0.00 | 0.00 | 34 | 1012.0 |
| 20260504184115 | 72 | 278 | 11.0 | 18.0 | 0.00 | 0.00 | 0.00 | 34 | 1012.2 |
| 20260504183613 | 72 | 283 | 6.0 | 16.0 | 0.00 | 0.00 | 0.00 | 34 | 1012.3 |
| 20260504183111 | 72 | 287 | 4.0 | 16.0 | 0.00 | 0.00 | 0.00 | 34 | 1012.2 |
| 20260504182608 | 72 | 258 | 3.0 | 16.0 | 0.00 | 0.00 | 0.00 | 34 | 1012.1 |
| 20260504182105 | 73 | 310 | 9.0 | 17.0 | 0.00 | 0.00 | 0.00 | 34 | 1012.2 |
| 20260504181602 | 73 | 277 | 7.0 | 11.0 | 0.00 | 0.00 | 0.00 | 34 | 1012.2 |
| 20260504181100 | 71 | 309 | 7.0 | 14.0 | 0.00 | 0.00 | 0.00 | 35 | 1012.4 |
| 20260504180558 | 72 | 282 | 7.0 | 17.0 | 0.00 | 0.00 | 0.00 | 35 | 1012.5 |
| 20260504180057 | 72 | 288 | 12.0 | 17.0 | 0.00 | 0.00 | 0.00 | 35 | 1012.5 |
| 20260504175554 | 70 | 294 | 6.0 | 21.0 | 0.00 | 0.00 | 0.00 | 37 | 1012.7 |
| 20260504175051 | 71 | 296 | 7.0 | 12.0 | 0.00 | 0.00 | 0.00 | 38 | 1012.7 |
| 20260504174549 | 71 | 241 | 11.0 | 15.0 | 0.00 | 0.00 | 0.00 | 38 | 1012.8 |
| 20260504174045 | 71 | 225 | 3.0 | 15.0 | 0.00 | 0.00 | 0.00 | 37 | 1012.8 |
| 20260504173542 | 72 | 178 | 5.0 | 17.0 | 0.00 | 0.00 | 0.00 | 37 | 1012.7 |
| 20260504173040 | 72 | 276 | 5.0 | 10.0 | 0.00 | 0.00 | 0.00 | 36 | 1012.6 |
| 20260504172536 | 70 | 307 | 8.0 | 20.0 | 0.00 | 0.00 | 0.00 | 36 | 1012.7 |
| 20260504172032 | 69 | 306 | 12.0 | 18.0 | 0.00 | 0.00 | 0.00 | 37 | 1012.8 |
| 20260504171529 | 70 | 262 | 8.0 | 17.0 | 0.00 | 0.00 | 0.00 | 36 | 1012.8 |
| 20260504171026 | 70 | 278 | 5.0 | 17.0 | 0.00 | 0.00 | 0.00 | 37 | 1013.1 |
| 20260504170522 | 69 | 338 | 1.0 | 15.0 | 0.00 | 0.00 | 0.00 | 37 | 1013.2 |